Regional Weather Roundup
Issued by NWS

Home | Current Version | Previous Version | Graphics & Text | Print | Product List | Glossary On
Versions: 1 2 3 4 5 6 7 8 9 10 11 12 13 14 15 16 17 18 19 20 21 22 23 24 25 26 27 28 29 30 31 32 33 34 35 36 37 38 39 40 41 42 43 44 45 46 47 48 49 50
070
ASUS45 KBOU 020807
RWRCO

WEATHER ROUNDUP FOR COLORADO
NATIONAL WEATHER SERVICE DENVER/BOULDER CO
100 AM MST FRI DEC 02 2016

NOTE: "FAIR" INDICATES FEW OR NO CLOUDS BELOW 12000 FEET WITH NO
SIGNIFICANT WEATHER AND/OR OBSTRUCTIONS TO VISIBILITY.

COZ001>005-013-030-031-020900-
...NORTHWEST COLORADO...

CITY           SKY/WX    TMP DP  RH WIND       PRES   REMARKS
CRAIG          CLOUDY    21  17  84 CALM      30.07S
HAYDEN         CLOUDY    19  16  86 CALM      30.05R
MEEKER         CLOUDY    21  18  88 CALM      30.04S
MOUNT WERNER   NOT AVBL
STEAMBOAT SPGS CLOUDY    18  17  93 CALM      30.04R
WALDEN           N/A     14  12  92 CALM      30.01R
$$

COZ006>008-011-020900-
...WEST CENTRAL VALLEYS...

CITY           SKY/WX    TMP DP  RH WIND       PRES   REMARKS
GRAND JUNCTION CLOUDY    30  24  78 CALM      30.04S
MONTROSE       CLOUDY    24  15  68 SE8       30.06S WCI  15
EAGLE          CLOUDY    22  18  85 CALM      30.06R
RIFLE          CLOUDY    25  22  88 E6        30.06R WCI  18
DELTA          CLOUDY    28  19  68 NE3       30.05S
NUCLA          CLOUDY    27  18  69 E8        30.04S WCI  18
$$

COZ017>023-064>068-020900-
...SOUTHWEST COLORADO...

CITY           SKY/WX    TMP DP  RH WIND       PRES   REMARKS
DURANGO        FAIR      19  14  81 NE6       29.98F WCI  11
CORTEZ         FAIR      18  14  84 E6        30.00F WCI  10
PAGOSA SPRINGS MOCLDY    18  15  90 CALM      29.99S
TELLURIDE      FAIR      15  12  88 CALM      29.97S
WOLF CREEK PAS CLOUDY     9   9 100 SW10      29.97S WCI  -6
$$

COZ009-010-012-014-032>034-037-058>063-020900-
...CENTRAL COLORADO...

CITY           SKY/WX    TMP DP  RH WIND       PRES   REMARKS
ASPEN          CLOUDY    16  12  84 S6        29.99R WCI   7
BUENA VISTA    NOT AVBL
COPPER MTN     CLOUDY    12   5  73 MISG      29.91S
BERTHOUD PASS  FAIR       3  -8  60 SW7       29.90R WCI  -9
COTTONWOOD PAS MOCLDY    21  10  63 CALM      29.96R
GUNNISON       CLOUDY    12   7  80 NE5       30.02R WCI   4
KREMMLING      LGT SNOW  21  18  86 CALM      30.04R
LEADVILLE      MOCLDY     6   2  83 E5        29.93F WCI  -3
MONARCH PASS     N/A      9   5  85 SW12      30.02S WCI  -6
SALIDA         FAIR      19   4  52 CALM      30.09R
SUNLIGHT       CLOUDY   N/A N/A N/A CALM      29.98S
WILKERSON PASS FAIR      10   5  79 SW7       29.96R WCI   0
$$

COZ069>075-020900-
...SAN LUIS VALLEY/SANGRE DE CRISTO MOUNTAINS...

CITY           SKY/WX    TMP DP  RH WIND       PRES   REMARKS
ALAMOSA        FAIR       5   1  83 CALM      30.00R
LA VETA PASS   FAIR      16   9  73 NE16      29.96R WCI   0
SAGUACHE       FAIR      14   9  79 NW9       30.00S WCI   2
$$

COZ035-036-038>040-020900-
...NORTHERN COLORADO FRONT RANGE...

CITY           SKY/WX    TMP DP  RH WIND       PRES   REMARKS
DENVER INTL AP MOCLDY    22  10  60 SE7       30.04R WCI  13
DMNS CITY PARK   N/A     26   9  48 N6        30.05R WCI  19
AURORA         CLOUDY    24  11  57 SW7       30.04R WCI  16
FRONT RANGE AP MOCLDY    25  12  58 SE8       30.05R WCI  16
ERIE MUNI ARPT CLOUDY    22  13  70 CALM      30.06R
BOULDER MUN AP CLOUDY    28  10  47 W3        30.06R
CENTENNIAL     FAIR      24   9  52 SW3       30.03R
BROOMFIELD     FAIR      28  10  47 NW12      30.04R WCI  18
FORT COLLINS   FAIR      25  12  58 CALM      30.07R
LONGMONT       CLOUDY    27  12  53 NW3       30.09R
$$

COZ041-046-047-076>085-087-088-020900-
...PIKES PEAK/PALMER DIVIDE AND SOUTHERN FOOTHILLS...

CITY           SKY/WX    TMP DP  RH WIND       PRES   REMARKS
COLO. SPRINGS  FAIR      17   3  54 N7        30.03R WCI   8
A. F. ACADEMY  FAIR      12   4  70 N10       30.02R WCI  -2
SCHRIEVER AFB  NOT AVBL
ELLICOTT       FAIR     N/A N/A N/A E3        30.02R
FALCON         FAIR      13   4  68 N3        30.02R
FORT CARSON    FAIR      19   5  55 NW7       30.02R WCI   9
LIMON          FAIR       5   2  87 NW5       30.05R WCI  -4
MONUMENT HILL  FAIR      14   5  67 SW3       30.01S
TRINIDAD       FAIR      17   6  62 NW5       30.03R WCI  10
$$

COZ042>045-048>051-090-091-020900-
...NORTHEAST COLORADO...

CITY           SKY/WX    TMP DP  RH WIND       PRES   REMARKS
GREELEY ARPT   MOCLDY    15   6  67 NW3       30.08R
AKRON          FAIR      22  14  71 NW6       30.06R WCI  14
BURLINGTON     FAIR      20   8  60 W8        30.07R WCI  10
WRAY           FAIR      21  12  68 W8        30.09  WCI  12
STERLING       FAIR      21  18  86 S6        30.08R WCI  14
HOLYOKE        FAIR      21  14  73 NW5       30.08R WCI  15
FORT MORGAN    MOCLDY    26  13  58 CALM      30.08R
$$

COZ086-089-092>099-020900-
...SOUTHEAST COLORADO...

CITY           SKY/WX    TMP DP  RH WIND       PRES   REMARKS
PUEBLO         FAIR      16   9  74 W3        30.05R
LA JUNTA       FAIR      20  11  68 S3        30.07R
LAMAR          FAIR      16   9  74 S3        30.08R
SPRINGFIELD      N/A     15   6  67 W7        30.06R WCI   5
$$




USA.gov is the U.S. government's official web portal to all federal, state and local government web resources and services.